Location: *
(35.8942°N, 23.3025°E)
Time: 23:39:41
(UTC+00:00)

Cosmos 1666 - Pass Details

Date: 21 September 2021
Orbit: 496 x 516 km, 82.5° (Epoch: 22 October)

Event Time Altitude Azimuth Distance (km) Brightness Sun altitude
Rises 02:23:02 0° 356° (N) 2,608 6.5 -22.9°
Reaches altitude 10° 02:25:10 10° 360° (N) 1,723 5.5 -22.5°
Maximum altitude 02:28:55 64° 82° (E) 565 3.0 -21.7°
Drops below altitude 10° 02:32:40 10° 165° (SSE) 1,722 5.3 -21.0°
Sets 02:34:48 0° 168° (SSE) 2,607 6.2 -20.6°
